| time (UTC) | temp C | wind direction | speed KPH | gust KPH | rain 1hr cm | rain 24hr cm | rain mn cm | humidity % | barometer mb |
| 20260510111704 | 11 | 131 | 0.0 | 3.2 | 0.00 | 0.86 | 0.00 | 98 | 1012.5 |
| 20260510111204 | 11 | 131 | 0.0 | 3.2 | 0.00 | 0.86 | 0.00 | 98 | 1012.3 |
| 20260510110704 | 11 | 131 | 0.0 | 0.0 | 0.00 | 0.86 | 0.00 | 98 | 1012.0 |
| 20260510110204 | 11 | 131 | 0.0 | 3.2 | 0.00 | 0.86 | 0.00 | 98 | 1011.9 |
| 20260510105204 | 10 | 131 | 0.0 | 0.0 | 0.00 | 0.86 | 0.00 | 98 | 1012.1 |
| 20260510104704 | 10 | 131 | 0.0 | 1.6 | 0.00 | 0.86 | 0.00 | 98 | 1012.0 |
| 20260510104203 | 10 | 131 | 0.0 | 0.0 | 0.00 | 0.86 | 0.00 | 98 | 1012.1 |
| 20260510103704 | 10 | 131 | 0.0 | 3.2 | 0.00 | 0.86 | 0.00 | 98 | 1011.9 |
| 20260510102704 | 10 | 127 | 1.6 | 4.8 | 0.00 | 0.86 | 0.00 | 98 | 1011.5 |
| 20260510102205 | 10 | 127 | 0.0 | 1.6 | 0.00 | 0.86 | 0.00 | 98 | 1011.8 |
| 20260510101204 | 10 | 127 | 0.0 | 3.2 | 0.00 | 0.86 | 0.00 | 98 | 1011.7 |
| 20260510100704 | 10 | 127 | 0.0 | 1.6 | 0.00 | 0.86 | 0.00 | 98 | 1011.8 |
| 20260510095704 | 10 | 127 | 0.0 | 0.0 | 0.00 | 0.86 | 0.00 | 98 | 1011.6 |
| 20260510095204 | 10 | 127 | 0.0 | 0.0 | 0.00 | 0.86 | 0.00 | 98 | 1011.5 |
| 20260510094205 | 10 | 127 | 0.0 | 0.0 | 0.00 | 0.86 | 0.00 | 97 | 1011.6 |
| 20260510093704 | 10 | 127 | 0.0 | 0.0 | 0.00 | 0.86 | 0.00 | 97 | 1011.7 |
| 20260510092204 | 10 | 127 | 0.0 | 0.0 | 0.00 | 0.86 | 0.00 | 97 | 1011.6 |
| 20260510091704 | 10 | 127 | 0.0 | 0.0 | 0.00 | 0.86 | 0.00 | 97 | 1011.4 |
| 20260510085704 | 10 | 127 | 0.0 | 0.0 | 0.00 | 0.86 | 0.00 | 97 | 1011.5 |
| 20260510084204 | 9 | 127 | 0.0 | 0.0 | 0.00 | 0.86 | 0.00 | 97 | 1011.7 |
| 20260510083704 | 9 | 127 | 0.0 | 0.0 | 0.00 | 0.86 | 0.00 | 98 | 1011.5 |
| 20260510082704 | 9 | 127 | 0.0 | 0.0 | 0.00 | 0.86 | 0.00 | 97 | 1011.5 |
| 20260510082205 | 9 | 127 | 0.0 | 0.0 | 0.00 | 0.86 | 0.00 | 97 | 1011.6 |
| 20260510081704 | 9 | 127 | 0.0 | 0.0 | 0.00 | 0.86 | 0.00 | 97 | 1011.5 |
| 20260510080704 | 9 | 127 | 0.0 | 0.0 | 0.00 | 0.86 | 0.00 | 97 | 1011.4 |
| 20260510080204 | 9 | 127 | 0.0 | 0.0 | 0.00 | 0.86 | 0.00 | 97 | 1011.2 |
| 20260510075204 | 9 | 127 | 0.0 | 0.0 | 0.00 | 0.86 | 0.00 | 97 | 1011.4 |
| 20260510074204 | 9 | 127 | 0.0 | 0.0 | 0.00 | 0.86 | 0.00 | 97 | 1011.3 |
| 20260510073204 | 9 | 127 | 0.0 | 0.0 | 0.00 | 0.86 | 0.00 | 97 | 1011.1 |
| 20260510065705 | 9 | 127 | 0.0 | 0.0 | 0.00 | 0.86 | 0.00 | 97 | 1011.0 |
| 20260510064703 | 9 | 127 | 0.0 | 0.0 | 0.00 | 0.86 | 0.00 | 97 | 1011.0 |
| 20260510064204 | 9 | 127 | 0.0 | 0.0 | 0.00 | 0.86 | 0.00 | 97 | 1010.9 |
| 20260510063704 | 9 | 127 | 0.0 | 0.0 | 0.00 | 0.86 | 0.00 | 97 | 1010.9 |
| 20260510062704 | 9 | 127 | 0.0 | 0.0 | 0.00 | 0.86 | 0.00 | 97 | 1011.0 |
| 20260510060704 | 9 | 127 | 0.0 | 0.0 | 0.00 | 0.86 | 0.00 | 97 | 1011.1 |
| 20260510060204 | 9 | 127 | 0.0 | 0.0 | 0.00 | 0.86 | 0.00 | 97 | 1011.2 |
| 20260510055704 | 9 | 127 | 0.0 | 0.0 | 0.00 | 0.86 | 0.00 | 97 | 1011.2 |
| 20260510054703 | 9 | 127 | 0.0 | 0.0 | 0.00 | 0.86 | 0.00 | 97 | 1011.2 |
| 20260510053204 | 9 | 127 | 0.0 | 0.0 | 0.00 | 0.86 | 0.00 | 97 | 1011.6 |
| 20260510051704 | 9 | 127 | 0.0 | 0.0 | 0.00 | 0.86 | 0.00 | 97 | 1011.7 |
| 20260510051204 | 9 | 127 | 0.0 | 0.0 | 0.00 | 0.86 | 0.00 | 97 | 1011.5 |
| 20260510045703 | 9 | 127 | 0.0 | 0.0 | 0.00 | 0.86 | 0.00 | 97 | 1011.7 |
| 20260510045204 | 9 | 127 | 0.0 | 0.0 | 0.00 | 0.86 | 0.00 | 97 | 1011.7 |
| 20260510042205 | 9 | 127 | 0.0 | 0.0 | 0.00 | 0.86 | 0.00 | 97 | 1011.7 |
| 20260510041704 | 9 | 127 | 0.0 | 0.0 | 0.00 | 0.86 | 0.00 | 97 | 1011.7 |
| 20260510035204 | 9 | 127 | 0.0 | 0.0 | 0.03 | 0.86 | 0.86 | 97 | 1012.0 |
| 20260510034704 | 9 | 127 | 0.0 | 0.0 | 0.03 | 0.86 | 0.86 | 97 | 1012.0 |
| 20260510034203 | 9 | 127 | 0.0 | 0.0 | 0.03 | 0.86 | 0.86 | 97 | 1012.0 |
| 20260510033704 | 9 | 127 | 0.0 | 1.6 | 0.03 | 0.86 | 0.86 | 97 | 1011.9 |
| 20260510032204 | 9 | 127 | 0.0 | 0.0 | 0.03 | 0.86 | 0.86 | 97 | 1011.9 |
| 20260510031704 | 9 | 127 | 0.0 | 0.0 | 0.03 | 0.86 | 0.86 | 97 | 1012.0 |
| 20260510031203 | 9 | 127 | 0.0 | 0.0 | 0.03 | 0.86 | 0.86 | 97 | 1012.1 |
| 20260510030704 | 9 | 127 | 0.0 | 0.0 | 0.00 | 0.84 | 0.84 | 96 | 1012.3 |
| 20260510030203 | 9 | 127 | 0.0 | 0.0 | 0.00 | 0.84 | 0.84 | 96 | 1012.3 |
| 20260510025704 | 9 | 127 | 0.0 | 0.0 | 0.00 | 0.84 | 0.84 | 96 | 1012.4 |
| 20260510025205 | 9 | 127 | 0.0 | 0.0 | 0.00 | 0.84 | 0.84 | 96 | 1012.4 |
| 20260510024703 | 9 | 127 | 0.0 | 0.0 | 0.00 | 0.84 | 0.84 | 96 | 1012.5 |
| 20260510024204 | 9 | 127 | 0.0 | 0.0 | 0.00 | 0.84 | 0.84 | 96 | 1012.4 |
| 20260510023703 | 8 | 127 | 0.0 | 0.0 | 0.00 | 0.84 | 0.84 | 96 | 1012.4 |
| 20260510023203 | 8 | 127 | 0.0 | 0.0 | 0.00 | 0.84 | 0.84 | 96 | 1012.4 |
| 20260510021204 | 8 | 127 | 0.0 | 0.0 | 0.00 | 0.84 | 0.84 | 96 | 1012.5 |
| 20260510020703 | 8 | 127 | 0.0 | 0.0 | 0.00 | 0.84 | 0.84 | 96 | 1012.6 |
| 20260510020204 | 8 | 127 | 0.0 | 0.0 | 0.00 | 0.84 | 0.84 | 96 | 1012.6 |
| 20260510015704 | 8 | 127 | 0.0 | 0.0 | 0.00 | 0.84 | 0.84 | 96 | 1012.7 |
| 20260510015203 | 8 | 127 | 0.0 | 0.0 | 0.00 | 0.84 | 0.84 | 96 | 1012.7 |
| 20260510013204 | 8 | 127 | 0.0 | 0.0 | 0.00 | 0.84 | 0.84 | 96 | 1012.5 |
| 20260510012704 | 8 | 127 | 0.0 | 0.0 | 0.00 | 0.84 | 0.84 | 96 | 1012.5 |
| 20260510011704 | 8 | 127 | 0.0 | 0.0 | 0.00 | 0.84 | 0.84 | 96 | 1012.5 |
| 20260510010703 | 8 | 127 | 0.0 | 0.0 | 0.00 | 0.84 | 0.84 | 96 | 1012.7 |
| 20260510005205 | 8 | 127 | 0.0 | 0.0 | 0.00 | 0.84 | 0.84 | 96 | 1012.3 |
| 20260510004705 | 8 | 127 | 0.0 | 0.0 | 0.00 | 0.84 | 0.84 | 96 | 1012.3 |
| 20260510004204 | 8 | 127 | 0.0 | 0.0 | 0.03 | 0.84 | 0.84 | 96 | 1012.2 |
| 20260510003705 | 8 | 127 | 0.0 | 0.0 | 0.03 | 0.84 | 0.84 | 96 | 1012.3 |
| 20260510002704 | 8 | 127 | 0.0 | 0.0 | 0.03 | 0.84 | 0.84 | 96 | 1012.4 |
| 20260510002205 | 8 | 127 | 0.0 | 0.0 | 0.03 | 0.84 | 0.84 | 96 | 1012.4 |
| 20260510001705 | 8 | 127 | 0.0 | 0.0 | 0.05 | 0.84 | 0.84 | 95 | 1012.4 |
| 20260510000705 | 8 | 127 | 0.0 | 1.6 | 0.05 | 0.84 | 0.84 | 95 | 1012.5 |
| 20260509235704 | 8 | 127 | 0.0 | 1.6 | 0.08 | 0.84 | 0.84 | 95 | 1012.3 |
| 20260509235205 | 8 | 127 | 0.0 | 1.6 | 0.08 | 0.84 | 0.84 | 95 | 1012.3 |
| 20260509234205 | 8 | 127 | 0.0 | 1.6 | 0.08 | 0.81 | 0.81 | 95 | 1012.3 |
| 20260509231705 | 8 | 126 | 1.6 | 3.2 | 0.08 | 0.79 | 0.79 | 95 | 1012.1 |
| 20260509230704 | 8 | 162 | 0.0 | 1.6 | 0.08 | 0.79 | 0.79 | 95 | 1012.1 |
| 20260509230204 | 8 | 210 | 0.0 | 1.6 | 0.08 | 0.79 | 0.79 | 95 | 1012.0 |
| 20260509225206 | 8 | 210 | 0.0 | 0.0 | 0.08 | 0.76 | 0.76 | 95 | 1011.9 |